When you browse on this site, cookies collect data to enhance your experience and personalize the content and advertising you see.
Visit our Privacy Policy to learn more. By continuing to use the site, you agree to this use of cookies and data.

Hourly Weather Svinovo

Today, 13 July, Monday

Time Temperature Precipitation Wind Pressure Humidity
00:00 +13°C° 0 mm 2 mps 746 mmHg 94%
01:00 +12°C° 0 mm 2 mps 746 mmHg 95%
02:00 +12°C° 0 mm 2 mps 746 mmHg 96%
03:00 +12°C° 0 mm 2 mps 746 mmHg 95%
04:00 +12°C° 0 mm 2 mps 746 mmHg 93%
05:00 +12°C° 0 mm 2 mps 746 mmHg 92%
06:00 +12°C° 0.1 mm 2 mps 745 mmHg 92%
07:00 +13°C° 0.1 mm 2 mps 745 mmHg 92%
08:00 +13°C° 0.1 mm 2 mps 745 mmHg 93%
09:00 +12°C° 0.1 mm 3 mps 745 mmHg 92%
10:00 +13°C° 0.1 mm 3 mps 745 mmHg 92%
11:00 +13°C° 0.1 mm 4 mps 745 mmHg 92%
12:00 +13°C° 0.2 mm 4 mps 745 mmHg 92%
13:00 +13°C° 0.2 mm 3 mps 745 mmHg 93%
14:00 +13°C° 0.2 mm 3 mps 744 mmHg 94%
15:00 +13°C° 0.3 mm 3 mps 744 mmHg 94%
16:00 +13°C° 0.3 mm 3 mps 744 mmHg 95%
17:00 +13°C° 0.3 mm 3 mps 743 mmHg 96%
18:00 +12°C° 0 mm 3 mps 743 mmHg 95%
19:00 +12°C° 0 mm 3 mps 743 mmHg 95%
20:00 +13°C° 0 mm 2 mps 743 mmHg 95%
21:00 +13°C° 0 mm 2 mps 743 mmHg 95%
22:00 +13°C° 0 mm 2 mps 743 mmHg 96%
23:00 +13°C° 0 mm 2 mps 743 mmHg 96%

Tomorrow, 14 July, Tuesday

Time Temperature Precipitation Wind Pressure Humidity
00:00 +13°C° 0 mm 2 mps 743 mmHg 96%
01:00 +13°C° 0 mm 2 mps 743 mmHg 96%
02:00 +13°C° 0 mm 2 mps 743 mmHg 96%
03:00 +13°C° 0 mm 2 mps 743 mmHg 96%
04:00 +13°C° 0 mm 2 mps 743 mmHg 96%
05:00 +12°C° 0 mm 3 mps 743 mmHg 95%
06:00 +14°C° 0 mm 3 mps 743 mmHg 90%
07:00 +16°C° 0 mm 3 mps 743 mmHg 84%
08:00 +17°C° 0 mm 4 mps 743 mmHg 78%
09:00 +18°C° 0 mm 4 mps 743 mmHg 73%
10:00 +19°C° 0 mm 4 mps 743 mmHg 67%
11:00 +21°C° 0 mm 5 mps 743 mmHg 61%
12:00 +21°C° 0 mm 5 mps 742 mmHg 60%
13:00 +22°C° 0 mm 5 mps 742 mmHg 58%
14:00 +22°C° 0 mm 5 mps 742 mmHg 57%
15:00 +22°C° 0 mm 5 mps 741 mmHg 60%
16:00 +21°C° 0 mm 5 mps 741 mmHg 62%
17:00 +21°C° 0 mm 5 mps 740 mmHg 65%
18:00 +20°C° 0.1 mm 5 mps 740 mmHg 68%
19:00 +19°C° 0.1 mm 5 mps 740 mmHg 71%
20:00 +17°C° 0.1 mm 5 mps 739 mmHg 73%
21:00 +16°C° 1.7 mm 5 mps 738 mmHg 81%
22:00 +15°C° 1.7 mm 5 mps 738 mmHg 88%
23:00 +14°C° 1.7 mm 5 mps 737 mmHg 95%

Day after tomorrow, 15 July, Wednesday

Time Temperature Precipitation Wind Pressure Humidity
00:00 +14°C° 3.4 mm 6 mps 737 mmHg 95%
01:00 +12°C° 3.4 mm 7 mps 737 mmHg 96%
02:00 +12°C° 3.4 mm 7 mps 737 mmHg 96%
03:00 +12°C° 2.3 mm 7 mps 737 mmHg 96%
04:00 +12°C° 2.3 mm 7 mps 736 mmHg 96%
05:00 +12°C° 2.3 mm 8 mps 736 mmHg 96%
06:00 +12°C° 0.6 mm 7 mps 737 mmHg 96%
07:00 +12°C° 0.6 mm 7 mps 737 mmHg 96%
08:00 +12°C° 0.6 mm 7 mps 737 mmHg 96%
09:00 +12°C° 0.1 mm 7 mps 737 mmHg 95%
10:00 +13°C° 0.1 mm 6 mps 737 mmHg 93%
11:00 +14°C° 0.1 mm 6 mps 737 mmHg 92%
12:00 +14°C° 0.2 mm 6 mps 737 mmHg 92%
13:00 +14°C° 0.2 mm 6 mps 737 mmHg 93%
14:00 +14°C° 0.2 mm 6 mps 738 mmHg 93%
15:00 +14°C° 0.1 mm 6 mps 738 mmHg 92%
16:00 +14°C° 0.1 mm 6 mps 738 mmHg 92%
17:00 +14°C° 0.1 mm 6 mps 738 mmHg 92%
18:00 +14°C° 0.2 mm 6 mps 738 mmHg 93%
19:00 +13°C° 0.2 mm 5 mps 738 mmHg 94%
20:00 +13°C° 0.2 mm 5 mps 738 mmHg 95%
21:00 +13°C° 0.1 mm 5 mps 738 mmHg 95%
22:00 +13°C° 0.1 mm 5 mps 738 mmHg 95%
23:00 +13°C° 0.1 mm 5 mps 738 mmHg 95%

16 July, Thursday

Time Temperature Precipitation Wind Pressure Humidity
00:00 +13°C° 0 mm 5 mps 738 mmHg 94%
01:00 +13°C° 0 mm 5 mps 738 mmHg 93%
02:00 +13°C° 0 mm 5 mps 738 mmHg 92%
03:00 +13°C° 0.2 mm 5 mps 738 mmHg 93%
04:00 +12°C° 0.2 mm 5 mps 738 mmHg 93%
05:00 +12°C° 0.2 mm 5 mps 738 mmHg 93%
06:00 +12°C° 0.3 mm 5 mps 738 mmHg 94%
07:00 +13°C° 0.3 mm 5 mps 738 mmHg 95%
08:00 +13°C° 0.3 mm 5 mps 738 mmHg 95%
09:00 +13°C° 0.3 mm 5 mps 739 mmHg 95%
10:00 +13°C° 0.3 mm 5 mps 739 mmHg 94%
11:00 +14°C° 0.3 mm 5 mps 739 mmHg 93%
12:00 +14°C° 0.6 mm 5 mps 739 mmHg 94%
13:00 +14°C° 0.6 mm 5 mps 740 mmHg 95%
14:00 +14°C° 0.6 mm 5 mps 740 mmHg 95%
15:00 +14°C° 0.4 mm 4 mps 740 mmHg 95%
16:00 +14°C° 0.4 mm 4 mps 740 mmHg 95%
17:00 +14°C° 0.4 mm 4 mps 740 mmHg 95%
18:00 +14°C° 0.2 mm 4 mps 741 mmHg 96%
19:00 +13°C° 0.2 mm 4 mps 741 mmHg 96%
20:00 +13°C° 0.2 mm 3 mps 741 mmHg 96%
21:00 +13°C° 0 mm 3 mps 741 mmHg 96%
22:00 +13°C° 0 mm 3 mps 741 mmHg 96%
23:00 +13°C° 0 mm 3 mps 741 mmHg 96%

17 July, Friday

Time Temperature Precipitation Wind Pressure Humidity
00:00 +12°C° 0 mm 3 mps 741 mmHg 96%
01:00 +12°C° 0 mm 3 mps 741 mmHg 96%
02:00 +12°C° 0 mm 3 mps 741 mmHg 97%
03:00 +12°C° 0 mm 3 mps 741 mmHg 97%
04:00 +12°C° 0 mm 3 mps 741 mmHg 96%
05:00 +12°C° 0 mm 3 mps 741 mmHg 96%
06:00 +13°C° 0 mm 3 mps 742 mmHg 95%
07:00 +13°C° 0 mm 3 mps 742 mmHg 93%
08:00 +14°C° 0 mm 3 mps 742 mmHg 91%
09:00 +16°C° 0 mm 3 mps 742 mmHg 88%
10:00 +16°C° 0 mm 3 mps 742 mmHg 85%
11:00 +17°C° 0 mm 3 mps 743 mmHg 82%
12:00 +17°C° 0 mm 3 mps 743 mmHg 81%
13:00 +17°C° 0 mm 3 mps 743 mmHg 81%
14:00 +17°C° 0 mm 3 mps 743 mmHg 80%
15:00 +17°C° 0 mm 3 mps 743 mmHg 80%
16:00 +17°C° 0 mm 3 mps 744 mmHg 80%
17:00 +17°C° 0 mm 3 mps 744 mmHg 80%
18:00 +16°C° 0 mm 3 mps 744 mmHg 84%
19:00 +15°C° 0 mm 2 mps 744 mmHg 87%
20:00 +15°C° 0 mm 2 mps 744 mmHg 90%
21:00 +14°C° 0 mm 2 mps 744 mmHg 91%
22:00 +14°C° 0 mm 2 mps 744 mmHg 92%
23:00 +13°C° 0 mm 2 mps 744 mmHg 92%

18 July, Saturday

Time Temperature Precipitation Wind Pressure Humidity
00:00 +13°C° 0 mm 2 mps 745 mmHg 92%
01:00 +12°C° 0 mm 2 mps 745 mmHg 92%
02:00 +12°C° 0 mm 2 mps 745 mmHg 92%
03:00 +12°C° 0 mm 2 mps 745 mmHg 91%
04:00 +12°C° 0 mm 2 mps 745 mmHg 90%
05:00 +11°C° 0 mm 3 mps 745 mmHg 88%
06:00 +12°C° 0 mm 3 mps 745 mmHg 87%
07:00 +12°C° 0 mm 3 mps 745 mmHg 86%
08:00 +12°C° 0 mm 3 mps 745 mmHg 84%
09:00 +12°C° 0 mm 3 mps 745 mmHg 84%
10:00 +12°C° 0 mm 3 mps 746 mmHg 84%
11:00 +13°C° 0 mm 3 mps 746 mmHg 84%
12:00 +13°C° 0 mm 3 mps 746 mmHg 81%
13:00 +14°C° 0 mm 3 mps 746 mmHg 79%
14:00 +16°C° 0 mm 3 mps 746 mmHg 77%
15:00 +14°C° 0 mm 3 mps 746 mmHg 78%
16:00 +14°C° 0 mm 3 mps 746 mmHg 80%
17:00 +15°C° 0 mm 2 mps 746 mmHg 81%
18:00 +14°C° 0 mm 2 mps 746 mmHg 84%
19:00 +14°C° 0 mm 2 mps 746 mmHg 86%
20:00 +13°C° 0 mm 2 mps 746 mmHg 89%
21:00 +13°C° 0 mm 2 mps 746 mmHg 86%
22:00 +13°C° 0 mm 2 mps 746 mmHg 84%
23:00 +13°C° 0 mm 2 mps 746 mmHg 81%
Show more